Weather History for KJEF - October, 2012

Change the Weather History Date:

Tuesday, October 9, 2012

  Actual Average Record
Temperature  
Mean Temperature 56 °F -  
Max Temperature 71 °F 70 °F 93 °F (1928)
Min Temperature 43 °F 44 °F 27 °F (1952)
Degree Days  
Heating Degree Days 8    
Growing Degree Days 6 (Base 50)    
Moisture  
Dew Point 41 °F    
Average Humidity 60    
Maximum Humidity 88    
Minimum Humidity 31    
Precipitation  
Precipitation 0.00 in - - ()
Sea Level Pressure  
Sea Level Pressure 29.97 in    
Wind  
Wind Speed 7 mph (SSW)    
Max Wind Speed 16 mph    
Max Gust Speed 24 mph    
Visibility 10 miles    
Events Rain    
Averages and records for this station are not official NWS values.
T = Trace of Precipitation, MM = Missing Value Source: NWS Daily Summary

Daily Weather History Graph

Daily Weather History Graph

Search for Another Location

Airport or City:

Trip Planner

Search our weather history database for the weather conditions in past years. The results will help you decide how hot, cold, wet, or windy it might be!

Date:

Astronomy

Oct. 09, 2012 Rise Set
Actual Time 7:12 AM CDT 6:38 PM CDT
Civil Twilight 6:45 AM CDT 7:04 PM CDT
Nautical Twilight 6:15 AM CDT 7:35 PM CDT
Astronomical Twilight 5:44 AM CDT 8:06 PM CDT
Moon 12:53 AM CDT (10/9) 3:02 PM CDT (10/9)
Length of Visible Light 12h 19m
Length of Day
11h 25m
Last Quarter, 36% of the Moon is Illuminated
Oct 9
Last Quarter
Oct 15
New
Oct 21
First Quarter
Oct 29
Full
Nov 6
Last Quarter

Hourly Weather History & Observations

Time (CDT) Temp. Windchill Dew Point Humidity Pressure Visibility Wind Dir Wind Speed Gust Speed Precip Events Conditions
12:53 AM 46.0 °F 43.9 °F 36.0 °F 68% 30.01 in 10.0 mi East 4.6 mph - N/A   Clear
1:53 AM 46.0 °F 43.9 °F 37.0 °F 71% 30.01 in 10.0 mi SE 4.6 mph - N/A   Clear
3:53 AM 45.0 °F 42.6 °F 37.0 °F 74% 29.98 in 10.0 mi SE 4.6 mph - N/A   Clear
4:53 AM 44.1 °F 41.5 °F 37.0 °F 76% 29.99 in 10.0 mi ESE 4.6 mph - N/A   Clear
5:53 AM 44.1 °F 41.5 °F 37.0 °F 76% 30.00 in 10.0 mi SE 4.6 mph - N/A   Clear
6:53 AM 43.0 °F 40.3 °F 37.0 °F 80% 30.00 in 10.0 mi ESE 4.6 mph - N/A   Clear
7:53 AM 43.0 °F 39.5 °F 37.9 °F 82% 30.00 in 10.0 mi ESE 5.8 mph - N/A   Clear
8:53 AM 48.9 °F - 39.9 °F 71% 30.00 in 10.0 mi SSE 6.9 mph - N/A   Clear
9:53 AM 54.0 °F - 39.9 °F 59% 29.99 in 10.0 mi South 8.1 mph - N/A   Clear
10:53 AM 59.0 °F - 41.0 °F 51% 29.98 in 10.0 mi South 9.2 mph - N/A   Clear
11:53 AM 64.9 °F - 37.9 °F 37% 29.96 in 10.0 mi WSW 16.1 mph 21.9 mph N/A   Clear
12:53 PM 66.9 °F - 39.0 °F 36% 29.93 in 10.0 mi South 15.0 mph 19.6 mph N/A   Clear
1:53 PM 68.0 °F - 37.9 °F 33% 29.90 in 10.0 mi South 13.8 mph 19.6 mph N/A   Clear
2:53 PM 69.1 °F - 39.0 °F 33% 29.88 in 10.0 mi SW 9.2 mph - N/A   Clear
3:53 PM 70.0 °F - 37.9 °F 31% 29.88 in 10.0 mi SW 11.5 mph 16.1 mph N/A   Clear
4:53 PM 70.0 °F - 39.0 °F 32% 29.87 in 10.0 mi SSW 5.8 mph - N/A   Scattered Clouds
5:53 PM 68.0 °F - 41.0 °F 37% 29.87 in 10.0 mi SSW 4.6 mph - N/A   Overcast
6:53 PM 66.0 °F - 42.1 °F 42% 29.88 in 10.0 mi Calm Calm - N/A   Overcast
7:53 PM 66.0 °F - 45.0 °F 47% 29.92 in 10.0 mi West 8.1 mph - N/A   Overcast
8:53 PM 59.0 °F - 53.1 °F 81% 29.95 in 7.0 mi WNW 8.1 mph - N/A   Overcast
9:00 PM 57.2 °F - 53.6 °F 88% 29.98 in 5.0 mi WNW 8.1 mph - 0.00 in Rain Light Rain
9:35 PM 57.2 °F - 48.2 °F 72% 30.00 in 10.0 mi NW 6.9 mph - 0.00 in   Overcast
9:53 PM 57.0 °F - 48.0 °F 72% 29.99 in 9.0 mi NNW 15.0 mph 19.6 mph 0.00 in Rain Light Rain
10:53 PM 51.1 °F - 44.1 °F 77% 30.05 in 9.0 mi North 10.4 mph 24.2 mph 0.00 in   Overcast
11:20 PM 50.0 °F - 42.8 °F 76% 30.09 in 10.0 mi NNW 5.8 mph - 0.00 in Rain Light Rain
11:53 PM 50.0 °F - 39.9 °F 68% 30.06 in 10.0 mi Calm Calm - 0.00 in   Overcast